This is the latest recevied weather packets stored in our database for station/object IK8TGH-3. If no packets are shown the sender has not sent any weather packets the latest 10 day(s).
| Time | Temp. | Humidity | Pressure | Rain* | Wind** | Luminosity | Snow |
|---|---|---|---|---|---|---|---|
| 1777541557 | 17.78° C | 58% | 1017 hPa | - | - | - | - |
| 1777540357 | 17.78° C | 57% | 1016.5 hPa | - | - | - | - |
| 1777539157 | 17.78° C | 57% | 1017.2 hPa | - | - | - | - |
| 1777537956 | 17.78° C | 56% | 1017.2 hPa | - | - | - | - |
| 1777536756 | 17.78° C | 56% | 1017.1 hPa | - | - | - | - |
| 1777535556 | 17.78° C | 56% | 1016.9 hPa | - | - | - | - |
| 1777534355 | 17.78° C | 56% | 1016.8 hPa | - | - | - | - |
| 1777533155 | 17.22° C | 56% | 1017 hPa | - | - | - | - |
| 1777531955 | 17.22° C | 55% | 1016.7 hPa | - | - | - | - |
| 1777530754 | 17.78° C | 52% | 1016.4 hPa | - | - | - | - |
| 1777529554 | 17.78° C | 51% | 1016.1 hPa | - | - | - | - |
| 1777528354 | 17.78° C | 56% | 1016 hPa | - | - | - | - |
| 1777527153 | 17.78° C | 64% | 1016 hPa | - | - | - | - |
| 1777525953 | 17.22° C | 67% | 1016 hPa | - | - | - | - |
| 1777524753 | 17.78° C | 67% | 1016.1 hPa | - | - | - | - |
| 1777523552 | 17.78° C | 66% | 1016.4 hPa | - | - | - | - |
| 1777522352 | 17.78° C | 67% | 1016.4 hPa | - | - | - | - |
| 1777521152 | 17.78° C | 67% | 1016.3 hPa | - | - | - | - |
| 1777519951 | 17.78° C | 66% | 1016 hPa | - | - | - | - |
| 1777518751 | 17.78° C | 65% | 1016.1 hPa | - | - | - | - |
| 1777517551 | 17.78° C | 65% | 1016.3 hPa | - | - | - | - |
| 1777516350 | 17.78° C | 64% | 1016.2 hPa | - | - | - | - |
| 1777515150 | 18.33° C | 64% | 1016.1 hPa | - | - | - | - |
| 1777513950 | 18.33° C | 64% | 1016 hPa | - | - | - | - |
| 1777512749 | 18.33° C | 64% | 1016 hPa | - | - | - | - |
* Rain since midnight (hover to see other rain measurements)
** Current wind speed in m/s (hover to see current wind gust speed)